Regional Weather Roundup
Issued by NWS

Home | Current Version | Previous Version | Text Only | Print | Product List | Glossary On
Versions: 1 2 3 4 5 6 7 8 9 10 11 12 13 14 15 16 17 18 19 20 21 22 23 24 25 26 27 28 29 30 31 32 33 34 35 36 37 38 39 40 41 42 43 44 45 46 47 48 49 50
901
ASUS44 KJAN 241603
RWRMS

MISSISSIPPI HOURLY WEATHER ROUNDUP
NATIONAL WEATHER SERVICE JACKSON MS
1000 AM CST MON NOV 24 2014

NOTE: "FAIR: INDICATES FEW OR NO CLOUDS BELOW 12,000 FEET WITH NO
SIGNIFICANT WEATHER AND/OR OBSTRUCTIONS TO VISIBILITY.

MSZ001>002-007>008-010>013-018>021-025>028-034>036-241700-
NORTHWEST MISSISSIPPI

CITY           SKY/WX    TMP DP  RH WIND       PRES   REMARKS
CLARKSDALE     FAIR      50  37  62 W15G21    29.92R
CLEVELAND      FAIR      53  40  62 NW10G20   29.93R
GREENWOOD      MOSUNNY   55  40  56 NW13G18   29.93R
GREENVILLE     SUNNY     54  36  50 NW15      29.94R
GRENADA        FAIR      54  41  62 W9        29.92R
OLIVE BRANCH   MOSUNNY   48  36  61 W9G21     29.86R
OXFORD         FAIR      50  32  50 W14G22    29.91R
TUNICA         SUNNY     52  36  54 W15       29.91R
$$

MSZ003>006-009-014>017-022>024-029>033-037>039-241700-
NORTHEAST MISSISSIPPI

CITY           SKY/WX    TMP DP  RH WIND       PRES   REMARKS
COLUMBUS AFB   PTSUNNY   57  44  61 W15       29.89R
CORINTH        FAIR      54  41  62 W16       29.85R
GOLDN TRIANGLE PTSUNNY   55  45  67 W10G16    29.88R
STARKVILLE     FAIR      55  43  62 NW7       29.90R
TUPELO         PTSUNNY   54  42  64 W12       29.88R
$$

MSZ040-058-241700-
CENTRAL MISSISSIPPI

CITY           SKY/WX    TMP DP  RH WIND       PRES   REMARKS
JACKSON INTL   PTSUNNY   58  43  57 NW8       29.94R
JACKSON HAWKNS PTSUNNY   55  41  59 N8        29.95R
MERIDIAN KEY   MOSUNNY   62  48  60 NW17      29.89R
MERIDIAN NAS   MOSUNNY   62  48  60 NW16      29.90R
RAYMOND        FAIR      55  50  82 MISG      29.94R
VICKSBURG      SUNNY     56  42  59 NW9G20    29.97R
$$

MSZ059>079-241700-
SOUTH MISSISSIPPI

CITY           SKY/WX    TMP DP  RH WIND       PRES   REMARKS
BROOKHAVEN     FAIR      55  45  67 NW10      29.95R
COLUMBIA       PTSUNNY   63  50  63 MISG        N/A
HATTIESBURG    SUNNY     67  55  65 NW15      29.90R
MCCOMB         SUNNY     58  45  62 NW10      29.93R
NATCHEZ        MOSUNNY   55  43  62 NW13      29.98R
PINE BELT      SUNNY     64  52  63 NW10G16   29.91R
$$

MSZ080>082-241700-
COASTAL MISSISSIPPI

CITY           SKY/WX    TMP DP  RH WIND       PRES   REMARKS
BAY ST LOUIS   MOSUNNY   72  55  56 NW8       29.87R
BILOXI         SUNNY     74  63  69 CALM      29.86R
PASCAGOULA     SUNNY     74  62  66 W8        29.86R
GULFPORT       SUNNY     73  61  65 W9        29.86R
$$



USA.gov is the U.S. government's official web portal to all federal, state and local government web resources and services.